Artesia, MS

5:35 PM CST on February 05, 2016 (GMT -0600)
Golden Triangle Regional

Weather History for KGTR - April, 2013

Change the Weather History Date:

Tuesday, April 9, 2013

  Actual Average Record
Temperature  
Mean Temperature 73 °F -  
Max Temperature 82 °F 71 °F 87 °F (2001)
Min Temperature 64 °F 49 °F 39 °F (2006)
Cooling Degree Days 8    
Growing Degree Days 23 (Base 50)    
Moisture  
Dew Point 62 °F    
Average Humidity 73    
Maximum Humidity 88    
Minimum Humidity 54    
Precipitation  
Precipitation 0.00 in - - ()
Sea Level Pressure  
Sea Level Pressure 30.00 in    
Wind  
Wind Speed 12 mph (SSE)    
Max Wind Speed 20 mph    
Max Gust Speed 25 mph    
Visibility 10 miles    
Events      
Averages and records for this station are not official NWS values.
T = Trace of Precipitation, MM = Missing Value Source: NWS Daily Summary

Daily Weather History Graph

Daily Weather History Graph

Search for Another Location

Airport or City:

Trip Planner

Search our weather history database for the weather conditions in past years. The results will help you decide how hot, cold, wet, or windy it might be!

Date:

Astronomy

Apr. 09, 2013 Rise Set
Actual Time 6:31 AM CDT 7:20 PM CDT
Civil Twilight 6:05 AM CDT 7:46 PM CDT
Nautical Twilight 5:36 AM CDT 8:16 PM CDT
Astronomical Twilight 5:05 AM CDT 8:46 PM CDT
Moon 5:52 AM CDT (4/9) 6:56 PM CDT (4/9)
Length of Visible Light 13h 40m
Length of Day
12h 49m
Waning Crescent, 1% of the Moon is Illuminated
Apr 9
Waning Crescent
Apr 10
New
Apr 18
First Quarter
Apr 25
Full
May 2
Last Quarter

Hourly Weather History & Observations

Time (CDT) Temp. Heat Index Dew Point Humidity Pressure Visibility Wind Dir Wind Speed Gust Speed Precip Events Conditions
12:15 AM 68.0 °F - 57.2 °F 68% 29.97 in 10.0 mi SSE 10.4 mph - N/A   Clear
12:35 AM 68.0 °F - 57.2 °F 68% 29.97 in 10.0 mi SSE 12.7 mph - N/A   Clear
12:55 AM 68.0 °F - 57.2 °F 68% 29.96 in 10.0 mi SSE 16.1 mph - N/A   Clear
1:15 AM 68.0 °F - 59.0 °F 73% 29.96 in 10.0 mi South 15.0 mph - N/A   Clear
1:35 AM 66.2 °F - 59.0 °F 78% 29.97 in 10.0 mi South 11.5 mph 18.4 mph N/A   Clear
1:55 AM 66.2 °F - 59.0 °F 78% 29.98 in 10.0 mi South 8.1 mph - N/A   Clear
2:15 AM 66.2 °F - 59.0 °F 78% 29.98 in 10.0 mi South 6.9 mph - N/A   Clear
2:35 AM 66.2 °F - 59.0 °F 78% 29.98 in 10.0 mi South 8.1 mph - N/A   Clear
2:55 AM 66.2 °F - 60.8 °F 83% 29.98 in 10.0 mi South 10.4 mph - N/A   Clear
3:15 AM 66.2 °F - 60.8 °F 83% 29.97 in 10.0 mi SSE 10.4 mph - N/A   Clear
3:35 AM 64.4 °F - 60.8 °F 88% 29.98 in 10.0 mi SSE 9.2 mph - N/A   Partly Cloudy
3:55 AM 66.2 °F - 60.8 °F 83% 29.98 in 10.0 mi South 10.4 mph 18.4 mph N/A   Mostly Cloudy
4:15 AM 66.2 °F - 60.8 °F 83% 29.99 in 10.0 mi South 9.2 mph - N/A   Overcast
4:35 AM 66.2 °F - 60.8 °F 83% 29.99 in 10.0 mi SSE 6.9 mph - N/A   Overcast
4:55 AM 66.2 °F - 60.8 °F 83% 29.99 in 10.0 mi SE 5.8 mph - N/A   Overcast
5:15 AM 66.2 °F - 60.8 °F 83% 30.00 in 10.0 mi SE 6.9 mph - N/A   Overcast
5:35 AM 66.2 °F - 60.8 °F 83% 30.00 in 6.0 mi SE 6.9 mph - N/A   Overcast
5:45 AM 66.2 °F - 60.8 °F 83% 30.00 in 10.0 mi SE 11.5 mph - N/A   Overcast
6:45 AM 66.2 °F - 60.8 °F 83% 30.02 in 10.0 mi ESE 9.2 mph - N/A   Overcast
7:45 AM 66.2 °F - 62.6 °F 88% 30.04 in 10.0 mi SE 12.7 mph - N/A   Overcast
8:55 AM 68.0 °F - 62.6 °F 83% 30.07 in 10.0 mi SSE 11.5 mph - N/A   Overcast
9:45 AM - - 62.6 °F N/A% 30.07 in 10.0 mi SE 11.5 mph - N/A   Overcast
10:46 AM 71.6 °F - 64.4 °F 78% - 10.0 mi South 11.5 mph - N/A   Mostly Cloudy
11:45 AM 71.6 °F - 64.4 °F 78% 30.06 in 10.0 mi SSE 12.7 mph 18.4 mph N/A   Mostly Cloudy
12:45 PM 73.4 °F - 64.4 °F 73% 30.05 in 10.0 mi South 12.7 mph - N/A   Scattered Clouds
1:50 PM 78.8 °F - 64.4 °F 61% 30.00 in 10.0 mi South 11.5 mph 23.0 mph N/A   Mostly Cloudy
2:50 PM 80.6 °F 82.7 °F 66.2 °F 61% 30.02 in 10.0 mi South 18.4 mph - N/A   Mostly Cloudy
3:50 PM 80.6 °F 82.7 °F 66.2 °F 61% 30.00 in 10.0 mi South 16.1 mph - N/A   Mostly Cloudy
4:45 PM 82.4 °F 83.9 °F 64.4 °F 54% 29.98 in 10.0 mi SSE 15.0 mph 19.6 mph N/A   Mostly Cloudy
5:45 PM 82.4 °F 83.9 °F 64.4 °F 54% 29.98 in 10.0 mi SSE 19.6 mph 25.3 mph N/A   Partly Cloudy
6:45 PM 80.6 °F 82.3 °F 64.4 °F 58% 29.98 in 10.0 mi SSE 13.8 mph - N/A   Partly Cloudy
7:45 PM 77.0 °F - 62.6 °F 61% 29.99 in 10.0 mi South 11.5 mph - N/A   Mostly Cloudy
8:15 PM 77.0 °F - 62.6 °F 61% 30.00 in 10.0 mi South 12.7 mph - N/A   Mostly Cloudy
8:35 PM 75.2 °F - 62.6 °F 65% 29.99 in 10.0 mi SSE 13.8 mph - N/A   Partly Cloudy
8:55 PM 75.2 °F - 62.6 °F 65% 30.00 in 10.0 mi South 15.0 mph - N/A   Clear
9:15 PM 75.2 °F - 62.6 °F 65% 30.01 in 10.0 mi South 13.8 mph - N/A   Clear
9:55 PM 73.4 °F - 62.6 °F 69% 30.01 in 10.0 mi South 16.1 mph 23.0 mph N/A   Clear
10:15 PM 73.4 °F - 62.6 °F 69% 30.01 in 10.0 mi South 17.3 mph 20.7 mph N/A   Clear
10:35 PM 73.4 °F - 62.6 °F 69% 30.00 in 10.0 mi South 16.1 mph 21.9 mph N/A   Clear
10:55 PM 73.4 °F - 62.6 °F 69% 30.00 in 10.0 mi SSE 13.8 mph 21.9 mph N/A   Clear
11:15 PM 71.6 °F - 62.6 °F 73% 30.00 in 10.0 mi SSE 13.8 mph 23.0 mph N/A   Clear
11:35 PM 71.6 °F - 60.8 °F 69% 29.99 in 10.0 mi South 15.0 mph - N/A   Clear
11:55 PM 71.6 °F - 60.8 °F 69% 30.00 in 10.0 mi SSE 15.0 mph - N/A   Clear